Weather History for KLVS - April, 2013

Change the Weather History Date:

Friday, April 5, 2013

  Actual Average Record
Temperature  
Mean Temperature 54 °F -  
Max Temperature 71 °F 60 °F 75 °F (1954)
Min Temperature 39 °F 28 °F 0 °F (1983)
Degree Days  
Heating Degree Days 11    
Growing Degree Days 4 (Base 50)    
Moisture  
Dew Point 11 °F    
Average Humidity 19    
Maximum Humidity 35    
Minimum Humidity 10    
Precipitation  
Precipitation 0.00 in - - ()
Sea Level Pressure  
Sea Level Pressure 29.83 in    
Wind  
Wind Speed 16 mph (SSW)    
Max Wind Speed 34 mph    
Max Gust Speed 45 mph    
Visibility 10 miles    
Events      
Averages and records for this station are not official NWS values.
T = Trace of Precipitation, MM = Missing Value Source: NWS Daily Summary

Daily Weather History Graph

Daily Weather History Graph

Search for Another Location

Airport or City:

Trip Planner

Search our weather history database for the weather conditions in past years. The results will help you decide how hot, cold, wet, or windy it might be!

Date:

Astronomy

Apr. 05, 2013 Rise Set
Actual Time 6:41 AM MDT 7:25 PM MDT
Civil Twilight 6:15 AM MDT 7:51 PM MDT
Nautical Twilight 5:44 AM MDT 8:22 PM MDT
Astronomical Twilight 5:13 AM MDT 8:53 PM MDT
Moon 3:40 AM MDT (4/5) 3:01 PM MDT (4/5)
Length of Visible Light 13h 36m
Length of Day
12h 44m
Waning Crescent, 23% of the Moon is Illuminated
Apr 5
Waning Crescent
Apr 10
New
Apr 18
First Quarter
Apr 25
Full
May 2
Last Quarter

Hourly Weather History & Observations

Time (MDT) Temp. Windchill Dew Point Humidity Pressure Visibility Wind Dir Wind Speed Gust Speed Precip Events Conditions
12:53 AM 42.1 °F 34.5 °F 12.0 °F 29% 29.98 in 10.0 mi SSE 15.0 mph - N/A   Clear
1:53 AM 44.1 °F 38.1 °F 12.9 °F 28% 29.96 in 10.0 mi South 11.5 mph - N/A   Clear
2:53 AM 45.0 °F 39.7 °F 10.0 °F 24% 29.93 in 10.0 mi South 10.4 mph - N/A   Clear
3:53 AM 41.0 °F 34.3 °F 15.1 °F 35% 29.94 in 10.0 mi South 11.5 mph - N/A   Clear
4:53 AM 43.0 °F 36.8 °F 12.9 °F 30% 29.91 in 10.0 mi SSE 11.5 mph - N/A   Clear
5:53 AM 39.9 °F 32.5 °F 12.9 °F 33% 29.93 in 10.0 mi SSE 12.7 mph - N/A   Clear
6:53 AM 39.9 °F 33.9 °F 10.9 °F 31% 29.95 in 10.0 mi South 9.2 mph - N/A   Clear
7:53 AM 46.0 °F 40.2 °F 10.9 °F 24% 29.96 in 10.0 mi South 12.7 mph - N/A   Clear
8:53 AM 52.0 °F - 12.0 °F 20% 29.94 in 10.0 mi South 13.8 mph - N/A   Clear
9:53 AM 55.0 °F - 10.9 °F 17% 29.93 in 10.0 mi SSW 17.3 mph - N/A   Clear
10:53 AM 64.0 °F - 10.0 °F 12% 29.88 in 10.0 mi SW 15.0 mph 27.6 mph N/A   Clear
11:53 AM 64.9 °F - 7.0 °F 10% 29.88 in 10.0 mi WSW 21.9 mph 33.4 mph N/A   Clear
12:53 PM 66.9 °F - 7.0 °F 10% 29.83 in 10.0 mi SW 31.1 mph 44.9 mph N/A   Clear
1:53 PM 69.1 °F - 10.9 °F 11% 29.78 in 10.0 mi WSW 34.5 mph 42.6 mph N/A   Scattered Clouds
2:53 PM 68.0 °F - 9.0 °F 10% 29.74 in 10.0 mi SW 27.6 mph 40.3 mph N/A   Scattered Clouds
3:53 PM 69.1 °F - 12.0 °F 11% 29.73 in 10.0 mi WSW 25.3 mph 41.4 mph N/A   Clear
4:53 PM 69.1 °F - 9.0 °F 10% 29.70 in 10.0 mi SW 31.1 mph 44.9 mph N/A   Clear
5:53 PM 66.9 °F - 9.0 °F 10% 29.71 in 10.0 mi SW 21.9 mph 33.4 mph N/A   Clear
6:53 PM 64.0 °F - 9.0 °F 12% 29.72 in 10.0 mi WSW 17.3 mph - N/A   Clear
7:53 PM 60.1 °F - 12.0 °F 15% 29.71 in 10.0 mi SW 16.1 mph - N/A   Partly Cloudy
8:53 PM 59.0 °F - 14.0 °F 17% 29.71 in 10.0 mi WSW 11.5 mph 24.2 mph N/A   Clear
9:53 PM 51.1 °F - 12.0 °F 21% 29.74 in 10.0 mi SSW 10.4 mph - N/A   Clear
10:53 PM 51.1 °F - 12.9 °F 22% 29.69 in 10.0 mi SSW 9.2 mph - N/A   Clear
11:53 PM 51.1 °F - 14.0 °F 23% 29.69 in 10.0 mi WSW 4.6 mph - N/A   Clear